SR5MRF Weather Reports


time (UTC)temp
C
wind
direction
speed
KPH
gust
KPH
rain 1hr
cm
rain 24hr
cm
rain mn
cm
humidity
%
barometer
mb
20260504081844 28 135 0.0 0.0 0.00 0.00 0.00 29 1011.3
20260504081643 28 157 0.0 0.0 0.00 0.00 0.00 29 1011.4
20260504080943 27 135 0.0 0.0 0.00 0.00 0.00 29 1011.4
20260504080844 27 135 0.0 0.0 0.00 0.00 0.00 29 1011.5
20260504080243 27 157 0.0 0.0 0.00 0.00 0.00 29 1011.4
20260504050743 13 202 0.0 0.0 0.00 0.00 0.00 54 1011.6
20260504045343 12 202 0.0 0.0 0.00 0.00 0.00 55 1011.8
20260504044643 12 202 0.0 0.0 0.00 0.00 0.00 56 1011.6
20260504043943 12 247 0.0 0.0 0.00 0.00 0.00 56 1011.6
20260504043844 12 247 0.0 0.0 0.00 0.00 0.00 56 1011.6
20260504043243 12 225 0.0 0.0 0.00 0.00 0.00 56 1011.6
20260504042844 12 225 0.0 0.0 0.00 0.00 0.00 57 1011.6
20260504042543 12 225 0.0 0.0 0.00 0.00 0.00 57 1011.6
20260504041843 11 157 0.0 0.0 0.00 0.00 0.00 58 1011.6
20260504041143 11 202 0.0 0.0 0.00 0.00 0.00 58 1011.6
20260504040845 11 180 0.0 0.0 0.00 0.00 0.00 58 1011.6
20260504040443 11 180 0.0 0.0 0.00 0.00 0.00 58 1011.6
20260504035743 11 180 0.0 0.0 0.00 0.00 0.00 58 1011.6
20260504035043 11 180 0.0 0.0 0.00 0.00 0.00 58 1011.5
20260504034343 11 180 0.0 0.0 0.00 0.00 0.00 58 1011.6
20260504033844 11 180 0.0 0.0 0.00 0.00 0.00 58 1011.7
20260504033643 11 180 0.0 0.0 0.00 0.00 0.00 57 1011.7
20260504032943 11 180 0.0 0.0 0.00 0.00 0.00 57 1011.6
20260504032243 11 180 0.0 0.0 0.00 0.00 0.00 57 1011.6
20260504031543 11 180 0.0 0.0 0.00 0.00 0.00 57 1011.6
20260504030843 11 180 0.0 0.0 0.00 0.00 0.00 57 1011.6
20260504030143 11 180 0.0 0.0 0.00 0.00 0.00 57 1011.6
20260504025443 11 180 0.0 0.0 0.00 0.00 0.00 56 1011.6
20260504024844 11 180 0.0 0.0 0.00 0.00 0.00 56 1011.5
20260504024743 11 180 0.0 0.0 0.00 0.00 0.00 56 1011.5
20260504024043 11 180 0.0 0.0 0.00 0.00 0.00 56 1011.7
20260504023844 11 180 0.0 0.0 0.00 0.00 0.00 56 1011.6
20260504023343 11 180 0.0 0.0 0.00 0.00 0.00 56 1011.6
20260504022844 12 180 0.0 0.0 0.00 0.00 0.00 56 1011.6
20260504022643 12 180 0.0 0.0 0.00 0.00 0.00 55 1011.6
20260504021943 12 180 0.0 0.0 0.00 0.00 0.00 55 1011.5
20260504021844 12 180 0.0 0.0 0.00 0.00 0.00 55 1011.5
20260504021243 12 180 0.0 0.0 0.00 0.00 0.00 55 1011.6
20260504020844 12 180 0.0 0.0 0.00 0.00 0.00 54 1011.5
20260504020543 12 180 0.0 0.0 0.00 0.00 0.00 54 1011.5
20260504015843 12 180 0.0 0.0 0.00 0.00 0.00 54 1011.6
20260504015143 12 180 0.0 0.0 0.00 0.00 0.00 53 1011.6
20260504014844 12 180 0.0 0.0 0.00 0.00 0.00 53 1011.7
20260504014443 12 180 0.0 0.0 0.00 0.00 0.00 53 1011.6
20260504013844 12 180 0.0 0.0 0.00 0.00 0.00 52 1011.6
20260504013743 12 180 0.0 0.0 0.00 0.00 0.00 52 1011.6
20260504013043 12 180 0.0 0.0 0.00 0.00 0.00 52 1011.5
20260504012844 12 180 0.0 0.0 0.00 0.00 0.00 52 1011.5
20260504012343 12 180 0.0 0.0 0.00 0.00 0.00 52 1011.5
20260504011844 12 180 0.0 0.0 0.00 0.00 0.00 52 1011.6
20260504011643 13 180 0.0 0.0 0.00 0.00 0.00 52 1011.5
20260504010943 13 180 0.0 0.0 0.00 0.00 0.00 52 1011.7
20260504010844 13 180 0.0 0.0 0.00 0.00 0.00 52 1011.8
20260504010243 13 180 0.0 0.0 0.00 0.00 0.00 52 1011.8
20260504005844 13 180 0.0 0.0 0.00 0.00 0.00 51 1011.7
20260504005543 13 270 0.0 0.0 0.00 0.00 0.00 51 1011.7
20260504004843 13 270 0.0 0.0 0.00 0.00 0.00 51 1011.7
20260504004143 13 270 0.0 0.0 0.00 0.00 0.00 51 1011.6
20260504003844 13 270 0.0 0.0 0.00 0.00 0.00 51 1011.6
20260504003443 13 270 0.0 0.0 0.00 0.00 0.00 51 1011.6
20260504002844 13 270 0.0 0.0 0.00 0.00 0.00 51 1011.6
20260504002744 13 270 0.0 0.0 0.00 0.00 0.00 51 1011.5
20260504002044 13 270 0.0 0.0 0.00 0.00 0.00 51 1011.7
20260504001844 13 270 0.0 0.0 0.00 0.00 0.00 51 1011.7
20260504001344 13 270 0.0 0.0 0.00 0.00 0.00 51 1011.7
20260504000844 13 270 0.0 0.0 0.00 0.00 0.00 50 1011.7
20260504000643 13 270 0.0 0.0 0.00 0.00 0.00 50 1011.7
20260503235944 13 270 0.0 0.0 0.00 0.00 0.00 50 1011.6
20260503235844 13 270 0.0 0.0 0.00 0.00 0.00 50 1011.6
20260503235244 14 270 0.0 0.0 0.00 0.00 0.00 50 1011.8
20260503234844 14 270 0.0 0.0 0.00 0.00 0.00 49 1011.8
20260503234544 14 270 0.0 0.0 0.00 0.00 0.00 49 1011.8
20260503233844 14 270 0.0 0.0 0.00 0.00 0.00 49 1011.7
20260503233144 14 270 0.0 0.0 0.00 0.00 0.00 48 1011.8
20260503232844 14 270 0.0 0.0 0.00 0.00 0.00 48 1011.8
20260503232444 14 270 0.0 0.0 0.00 0.00 0.00 48 1011.8
20260503231844 15 270 0.0 0.0 0.00 0.00 0.00 47 1011.8
20260503231744 15 270 0.0 0.0 0.00 0.00 0.00 47 1011.7
20260503231044 15 270 0.0 0.0 0.00 0.00 0.00 47 1011.7
20260503230844 15 270 0.0 0.0 0.00 0.00 0.00 46 1011.7
20260503230344 15 270 0.0 0.0 0.00 0.00 0.00 46 1011.7
20260503225845 15 270 0.0 0.0 0.00 0.00 0.00 46 1011.9
20260503225644 15 270 0.0 0.0 0.00 0.00 0.00 46 1011.9
20260503224944 15 270 0.0 0.0 0.00 0.00 0.00 45 1011.9
20260503224845 15 270 0.0 0.0 0.00 0.00 0.00 45 1011.9
20260503224244 15 270 0.0 0.0 0.00 0.00 0.00 45 1011.8
20260503223845 15 270 0.0 0.0 0.00 0.00 0.00 45 1011.7
20260503223544 15 270 0.0 0.0 0.00 0.00 0.00 44 1011.9
20260503222844 16 270 0.0 0.0 0.00 0.00 0.00 44 1011.8
20260503222144 16 270 0.0 0.0 0.00 0.00 0.00 44 1011.7
20260503221845 16 270 0.0 0.0 0.00 0.00 0.00 43 1011.8
20260503221444 16 270 0.0 0.0 0.00 0.00 0.00 43 1011.8
20260503220845 16 270 0.0 0.0 0.00 0.00 0.00 43 1011.9
20260503220744 16 270 0.0 0.0 0.00 0.00 0.00 43 1011.9
20260503220044 16 270 0.0 0.0 0.00 0.00 0.00 42 1011.9
20260503215845 16 270 0.0 0.0 0.00 0.00 0.00 42 1011.9
20260503215344 16 270 0.0 0.0 0.00 0.00 0.00 42 1011.8
20260503214845 16 270 0.0 0.0 0.00 0.00 0.00 42 1011.9
20260503214644 17 270 0.0 0.0 0.00 0.00 0.00 42 1011.7
20260503213944 17 270 0.0 0.0 0.00 0.00 0.00 41 1011.7
20260503213845 17 270 0.0 0.0 0.00 0.00 0.00 41 1011.7
20260503213244 17 270 0.0 0.0 0.00 0.00 0.00 41 1011.8
20260503212845 17 270 0.0 0.0 0.00 0.00 0.00 41 1011.7
20260503212544 17 270 0.0 0.0 0.00 0.00 0.00 40 1011.8
20260503211844 17 270 0.0 0.0 0.00 0.00 0.00 40 1011.8
20260503211144 17 270 0.0 0.0 0.00 0.00 0.00 40 1012.0
20260503210845 17 270 0.0 0.0 0.00 0.00 0.00 39 1012.0
20260503210444 18 270 0.0 0.0 0.00 0.00 0.00 39 1012.0
20260503205845 18 270 0.0 0.0 0.00 0.00 0.00 39 1012.0
20260503205744 18 270 0.0 0.0 0.00 0.00 0.00 38 1012.0
20260503205044 18 270 0.0 0.0 0.00 0.00 0.00 38 1012.0
20260503204845 18 270 0.0 0.0 0.00 0.00 0.00 38 1012.0
20260503204344 18 270 0.0 0.0 0.00 0.00 0.00 38 1012.0
20260503203845 18 292 0.0 0.0 0.00 0.00 0.00 37 1011.9
20260503203644 18 315 0.0 0.0 0.00 0.00 0.00 37 1011.8
20260503202944 18 202 0.0 0.0 0.00 0.00 0.00 37 1012.0
20260503202845 18 202 0.0 0.0 0.00 0.00 0.00 37 1011.9
20260503202244 19 202 0.0 0.0 0.00 0.00 0.00 36 1011.8
20260503201845 19 202 0.0 0.0 0.00 0.00 0.00 36 1011.8
20260503201544 19 202 0.0 0.0 0.00 0.00 0.00 35 1011.8
20260503200844 19 247 0.0 0.0 0.00 0.00 0.00 35 1011.8
20260503200144 19 247 0.0 0.0 0.00 0.00 0.00 35 1011.8
20260503195845 19 247 0.0 0.0 0.00 0.00 0.00 35 1011.8
20260503195444 19 247 0.0 0.0 0.00 0.00 0.00 35 1011.7
20260503194845 20 247 0.0 0.0 0.00 0.00 0.00 35 1011.7
20260503194744 20 247 0.0 0.0 0.00 0.00 0.00 35 1011.7
20260503194044 20 247 0.0 0.0 0.00 0.00 0.00 34 1011.6
20260503193845 20 247 0.0 0.0 0.00 0.00 0.00 34 1011.7
20260503193344 20 247 0.0 0.0 0.00 0.00 0.00 34 1011.9
20260503192644 20 247 0.0 0.0 0.00 0.00 0.00 33 1011.8
20260503191944 20 247 0.0 0.0 0.00 0.00 0.00 33 1011.8
20260503191845 20 247 0.0 0.0 0.00 0.00 0.00 33 1011.9
20260503191244 20 247 0.0 0.0 0.00 0.00 0.00 33 1011.7
20260503190544 21 247 0.0 0.0 0.00 0.00 0.00 32 1011.8
20260503185844 21 247 0.0 0.0 0.00 0.00 0.00 32 1011.7
20260503185144 21 247 0.0 0.0 0.00 0.00 0.00 31 1011.7
20260503184845 21 247 0.0 0.0 0.00 0.00 0.00 31 1011.7
20260503184444 22 247 0.0 0.0 0.00 0.00 0.00 30 1011.7
20260503183845 22 247 0.0 0.0 0.00 0.00 0.00 30 1011.7
20260503183744 22 247 0.0 0.0 0.00 0.00 0.00 30 1011.6
20260503183044 22 247 0.0 0.0 0.00 0.00 0.00 30 1011.4
20260503182845 22 247 0.0 0.0 0.00 0.00 0.00 30 1011.4
20260503182344 22 247 0.0 0.0 0.00 0.00 0.00 29 1011.6
20260503181845 22 247 0.0 0.0 0.00 0.00 0.00 29 1011.6
20260503181644 22 247 0.0 0.0 0.00 0.00 0.00 29 1011.5
20260503180944 23 247 0.0 0.0 0.00 0.00 0.00 29 1011.3
20260503180244 23 247 0.0 0.0 0.00 0.00 0.00 29 1011.5
20260503175845 23 247 0.0 0.0 0.00 0.00 0.00 29 1011.5
20260503175544 23 247 0.0 0.0 0.00 0.00 0.00 28 1011.5
20260503174844 23 247 0.0 0.0 0.00 0.00 0.00 28 1011.3
20260503174144 24 247 0.0 0.0 0.00 0.00 0.00 28 1011.4
20260503173845 24 247 0.0 0.0 0.00 0.00 0.00 28 1011.4
20260503173444 24 247 0.0 0.0 0.00 0.00 0.00 28 1011.4
20260503172845 24 157 0.0 0.0 0.00 0.00 0.00 27 1011.2
20260503172744 24 157 0.0 0.0 0.00 0.00 0.00 27 1011.2
20260503172044 24 180 0.0 0.0 0.00 0.00 0.00 27 1011.3
20260503171845 24 180 0.0 0.0 0.00 0.00 0.00 27 1011.4
20260503171344 25 157 0.0 0.0 0.00 0.00 0.00 27 1011.4
20260503170644 25 270 0.0 0.0 0.00 0.00 0.00 27 1011.3
20260503150845 25 292 0.0 0.0 0.00 0.00 0.00 27 1011.8
20260503150744 25 180 0.0 0.0 0.00 0.00 0.00 27 1011.7
20260503130844 26 180 0.0 0.0 0.00 0.00 0.00 25 1013.1
20260503130144 26 225 0.0 0.0 0.00 0.00 0.00 24 1013.1
20260503110245 28 202 0.0 0.0 0.00 0.00 0.00 25 1014.4